Starlink 4101

operational
NORAD ID: 53142 Int'l Des: 2022-083 Owner: SPXS Country: US Constellation: starlink
LEOCIRCULAR

Über Starlink 4101

Beschreibung wird geladen...

Live-Position

3D-Globus wird geladen...

Nächste Überflüge

Höhenverlauf

Altitude vs Time

uPlot chart will show altitude changes over time

Zweizeiliger Elementsatz

1 53142U 22083L 25307.92988562 .00000916 00000-0 75602-4 0 9996
2 53142 53.2162 18.6514 0001082 92.2895 267.8221 15.08844822182244
Epoch: 3. Nov. 2025 • Age: 12 hours

Aktueller Status

Höhe 539.9 km
Geschwindigkeit 7.60 km/s
Subsatellitenpunkt 20.99°N, 15.88°W
Startdatum 17. Juli 2022
Alter 3.2 years
Typ internet

Technische Details

Klassifizierung Payload
Masse 297.00 kg
Trockenmasse 275.00 kg
Gesamtmasse 297.00 kg
Länge 0.20 m
Durchmesser 2.80 m
Spannweite 9.00 m
Form Box + pan
Hersteller SPXS
Bus-Typ Starlink
Phasenstatus In Orbit
Besitzer/Staat SPXS/US

Große Konstellationen

Loading constellations...